| time (UTC) | temp F | wind direction | speed MPH | gust MPH | rain 1hr in | rain 24hr in | rain mn in | humidity % | barometer mb |
| 20260905215523 | 69 | 0.0 | 0.0 | 0.00 | 0.00 | 0.00 | 51 | 1009.4 | |
| 20260905214515 | 68 | 0.0 | 0.0 | 0.00 | 0.00 | 0.00 | 51 | 1009.4 | |
| 20260905213545 | 68 | 0.0 | 0.0 | 0.00 | 0.00 | 0.00 | 50 | 1009.4 | |
| 20260905212533 | 67 | 0.0 | 0.0 | 0.00 | 0.00 | 0.00 | 49 | 1009.4 | |
| 20260905211529 | 67 | 0.0 | 0.0 | 0.00 | 0.00 | 0.00 | 49 | 1009.4 | |
| 20260905210521 | 67 | 0.0 | 0.0 | 0.00 | 0.00 | 0.00 | 48 | 1009.4 | |
| 20260905205520 | 67 | 0.0 | 0.0 | 0.00 | 0.00 | 0.00 | 48 | 1009.4 | |
| 20260905204548 | 68 | 0.0 | 0.0 | 0.00 | 0.00 | 0.00 | 47 | 1009.4 | |
| 20260905203535 | 68 | 0.0 | 0.0 | 0.00 | 0.00 | 0.00 | 46 | 1009.4 | |
| 20260905202547 | 69 | 0.0 | 0.0 | 0.00 | 0.00 | 0.00 | 45 | 1009.4 | |
| 20260905201515 | 69 | 0.0 | 0.0 | 0.00 | 0.00 | 0.00 | 44 | 1009.4 | |
| 20260905200523 | 70 | 0.0 | 0.0 | 0.00 | 0.00 | 0.00 | 43 | 1009.4 | |
| 20260905195533 | 71 | 0.0 | 0.0 | 0.00 | 0.00 | 0.00 | 42 | 1009.4 | |
| 20260905194553 | 71 | 0.0 | 0.0 | 0.00 | 0.00 | 0.00 | 42 | 1008.7 | |
| 20260905193525 | 72 | 0.0 | 0.0 | 0.00 | 0.00 | 0.00 | 41 | 1008.4 | |
| 20260905192517 | 72 | 0.0 | 0.0 | 0.00 | 0.00 | 0.00 | 41 | 1008.4 | |
| 20260905191526 | 72 | 0.0 | 0.0 | 0.00 | 0.00 | 0.00 | 41 | 1008.4 | |
| 20260905190534 | 72 | 0.0 | 0.0 | 0.00 | 0.00 | 0.00 | 41 | 1008.4 | |
| 20260905185531 | 73 | 0.0 | 0.0 | 0.00 | 0.00 | 0.00 | 42 | 1008.4 | |
| 20260905184523 | 73 | 0.0 | 0.0 | 0.00 | 0.00 | 0.00 | 42 | 1007.6 | |
| 20260905183535 | 73 | 0.0 | 0.0 | 0.00 | 0.00 | 0.00 | 42 | 1007.4 | |
| 20260905182529 | 74 | 0.0 | 0.0 | 0.00 | 0.00 | 0.00 | 42 | 1007.4 | |
| 20260905181557 | 74 | 0.0 | 0.0 | 0.00 | 0.00 | 0.00 | 41 | 1007.4 | |
| 20260905180529 | 74 | 0.0 | 0.0 | 0.00 | 0.00 | 0.00 | 41 | 1007.4 | |
| 20260905175516 | 74 | 0.0 | 0.0 | 0.00 | 0.00 | 0.00 | 41 | 1007.4 | |
| 20260905174524 | 75 | 0.0 | 0.0 | 0.00 | 0.00 | 0.00 | 41 | 1007.4 | |
| 20260905173532 | 75 | 0.0 | 0.0 | 0.00 | 0.00 | 0.00 | 41 | 1007.4 | |
| 20260905172535 | 75 | 0.0 | 0.0 | 0.00 | 0.00 | 0.00 | 41 | 1007.4 | |
| 20260905171527 | 75 | 0.0 | 0.0 | 0.00 | 0.00 | 0.00 | 41 | 1007.4 | |
| 20260905170556 | 76 | 0.0 | 0.0 | 0.00 | 0.00 | 0.00 | 40 | 1007.4 | |
| 20260905165527 | 76 | 0.0 | 0.0 | 0.00 | 0.00 | 0.00 | 40 | 1006.3 | |
| 20260905164535 | 76 | 0.0 | 0.0 | 0.00 | 0.00 | 0.00 | 40 | 1007.2 | |
| 20260905163533 | 76 | 0.0 | 0.0 | 0.00 | 0.00 | 0.00 | 40 | 1007.4 | |
| 20260905162525 | 77 | 0.0 | 0.0 | 0.00 | 0.00 | 0.00 | 38 | 1006.3 | |
| 20260905161517 | 77 | 0.0 | 0.0 | 0.00 | 0.00 | 0.00 | 37 | 1006.3 | |
| 20260905160530 | 77 | 0.0 | 0.0 | 0.00 | 0.00 | 0.00 | 37 | 1006.3 | |
| 20260905155538 | 77 | 0.0 | 0.0 | 0.00 | 0.00 | 0.00 | 37 | 1007.4 | |
| 20260905154551 | 77 | 0.0 | 0.0 | 0.00 | 0.00 | 0.00 | 36 | 1007.4 | |
| 20260905153517 | 77 | 0.0 | 0.0 | 0.00 | 0.00 | 0.00 | 36 | 1007.4 | |
| 20260905152515 | 77 | 0.0 | 0.0 | 0.00 | 0.00 | 0.00 | 35 | 1006.3 | |
| 20260905151533 | 77 | 0.0 | 0.0 | 0.00 | 0.00 | 0.00 | 36 | 1006.3 | |
| 20260905150557 | 77 | 0.0 | 0.0 | 0.00 | 0.00 | 0.00 | 36 | 1006.3 | |
| 20260905145529 | 77 | 0.0 | 0.0 | 0.00 | 0.00 | 0.00 | 37 | 1007.4 | |
| 20260905144521 | 77 | 0.0 | 0.0 | 0.00 | 0.00 | 0.00 | 36 | 1007.4 | |
| 20260905143528 | 77 | 0.0 | 0.0 | 0.00 | 0.00 | 0.00 | 36 | 1007.4 | |
| 20260905142556 | 78 | 0.0 | 0.0 | 0.00 | 0.00 | 0.00 | 36 | 1007.4 | |
| 20260905141535 | 78 | 0.0 | 0.0 | 0.00 | 0.00 | 0.00 | 35 | 1007.4 | |
| 20260905140515 | 78 | 0.0 | 0.0 | 0.00 | 0.00 | 0.00 | 35 | 1007.4 | |
| 20260905135519 | 78 | 0.0 | 0.0 | 0.00 | 0.00 | 0.00 | 35 | 1007.4 | |
| 20260905134552 | 78 | 0.0 | 0.0 | 0.00 | 0.00 | 0.00 | 36 | 1007.4 | |
| 20260905133541 | 77 | 0.0 | 0.0 | 0.00 | 0.00 | 0.00 | 37 | 1007.4 | |
| 20260905132533 | 77 | 0.0 | 0.0 | 0.00 | 0.00 | 0.00 | 38 | 1007.4 | |
| 20260905131538 | 76 | 0.0 | 0.0 | 0.00 | 0.00 | 0.00 | 38 | 1007.4 | |
| 20260905130517 | 76 | 0.0 | 0.0 | 0.00 | 0.00 | 0.00 | 39 | 1007.4 | |
| 20260905125534 | 75 | 0.0 | 0.0 | 0.00 | 0.00 | 0.00 | 39 | 1007.4 | |
| 20260905124559 | 75 | 0.0 | 0.0 | 0.00 | 0.00 | 0.00 | 38 | 1007.4 | |
| 20260905123551 | 75 | 0.0 | 0.0 | 0.00 | 0.00 | 0.00 | 38 | 1007.4 | |
| 20260905122521 | 74 | 0.0 | 0.0 | 0.00 | 0.00 | 0.00 | 38 | 1008.4 | |
| 20260905121535 | 75 | 0.0 | 0.0 | 0.00 | 0.00 | 0.00 | 37 | 1007.5 | |
| 20260905120558 | 75 | 0.0 | 0.0 | 0.00 | 0.00 | 0.00 | 36 | 1007.4 | |
| 20260905115558 | 75 | 0.0 | 0.0 | 0.00 | 0.00 | 0.00 | 35 | 1008.4 | |
| 20260905114516 | 76 | 0.0 | 0.0 | 0.00 | 0.00 | 0.00 | 35 | 1008.4 | |
| 20260905113521 | 75 | 0.0 | 0.0 | 0.00 | 0.00 | 0.00 | 36 | 1008.4 | |
| 20260905112532 | 75 | 0.0 | 0.0 | 0.00 | 0.00 | 0.00 | 35 | 1008.4 | |
| 20260905111543 | 75 | 0.0 | 0.0 | 0.00 | 0.00 | 0.00 | 35 | 1007.4 | |
| 20260905110535 | 75 | 0.0 | 0.0 | 0.00 | 0.00 | 0.00 | 37 | 1007.4 | |
| 20260905105519 | 75 | 0.0 | 0.0 | 0.00 | 0.00 | 0.00 | 37 | 1008.4 | |
| 20260905104520 | 74 | 0.0 | 0.0 | 0.00 | 0.00 | 0.00 | 39 | 1007.6 | |
| 20260905103536 | 74 | 0.0 | 0.0 | 0.00 | 0.00 | 0.00 | 39 | 1007.4 | |
| 20260905102541 | 74 | 0.0 | 0.0 | 0.00 | 0.00 | 0.00 | 39 | 1008.4 | |
| 20260905101534 | 74 | 0.0 | 0.0 | 0.00 | 0.00 | 0.00 | 41 | 1007.6 | |
| 20260905100522 | 72 | 0.0 | 0.0 | 0.00 | 0.00 | 0.00 | 43 | 1007.4 | |
| 20260905095517 | 71 | 0.0 | 0.0 | 0.00 | 0.00 | 0.00 | 43 | 1008.4 | |
| 20260905094547 | 71 | 0.0 | 0.0 | 0.00 | 0.00 | 0.00 | 43 | 1008.4 | |
| 20260905093540 | 72 | 0.0 | 0.0 | 0.00 | 0.00 | 0.00 | 43 | 1008.4 | |
| 20260905092517 | 73 | 0.0 | 0.0 | 0.00 | 0.00 | 0.00 | 41 | 1008.4 | |
| 20260905091523 | 72 | 0.0 | 0.0 | 0.00 | 0.00 | 0.00 | 41 | 1008.4 | |
| 20260905090515 | 72 | 0.0 | 0.0 | 0.00 | 0.00 | 0.00 | 41 | 1008.4 | |
| 20260905085605 | 72 | 0.0 | 0.0 | 0.00 | 0.00 | 0.00 | 43 | 1008.4 | |
| 20260905084538 | 71 | 0.0 | 0.0 | 0.00 | 0.00 | 0.00 | 47 | 1007.6 | |
| 20260905083520 | 71 | 0.0 | 0.0 | 0.00 | 0.00 | 0.00 | 46 | 1007.4 | |
| 20260905082521 | 70 | 0.0 | 0.0 | 0.00 | 0.00 | 0.00 | 45 | 1008.4 | |
| 20260905081556 | 70 | 0.0 | 0.0 | 0.00 | 0.00 | 0.00 | 45 | 1007.5 | |
| 20260905080543 | 71 | 0.0 | 0.0 | 0.00 | 0.00 | 0.00 | 42 | 1007.4 | |
| 20260905075516 | 72 | 0.0 | 0.0 | 0.00 | 0.00 | 0.00 | 38 | 1008.4 | |
| 20260905074524 | 73 | 0.0 | 0.0 | 0.00 | 0.00 | 0.00 | 39 | 1007.6 | |
| 20260905073539 | 73 | 0.0 | 0.0 | 0.00 | 0.00 | 0.00 | 39 | 1007.4 | |
| 20260905072549 | 73 | 0.0 | 0.0 | 0.00 | 0.00 | 0.00 | 39 | 1007.4 | |
| 20260905071541 | 73 | 0.0 | 0.0 | 0.00 | 0.00 | 0.00 | 39 | 1006.5 | |
| 20260905070539 | 74 | 0.0 | 0.0 | 0.00 | 0.00 | 0.00 | 39 | 1006.3 | |
| 20260905065525 | 74 | 0.0 | 0.0 | 0.00 | 0.00 | 0.00 | 40 | 1006.3 | |
| 20260905064518 | 73 | 0.0 | 0.0 | 0.00 | 0.00 | 0.00 | 40 | 1005.5 | |
| 20260905063547 | 73 | 0.0 | 0.0 | 0.00 | 0.00 | 0.00 | 42 | 1005.3 | |
| 20260905062539 | 73 | 0.0 | 0.0 | 0.00 | 0.00 | 0.00 | 45 | 1005.3 | |
| 20260905061522 | 74 | 0.0 | 0.0 | 0.00 | 0.00 | 0.00 | 45 | 1004.7 | |
| 20260905060523 | 74 | 0.0 | 0.0 | 0.00 | 0.00 | 0.00 | 44 | 1004.3 | |
| 20260905055515 | 74 | 0.0 | 0.0 | 0.00 | 0.00 | 0.00 | 45 | 1004.3 | |
| 20260905054545 | 74 | 0.0 | 0.0 | 0.00 | 0.00 | 0.00 | 46 | 1003.5 | |
| 20260905053517 | 73 | 0.0 | 0.0 | 0.00 | 0.00 | 0.00 | 49 | 1003.3 | |
| 20260905052605 | 72 | 0.0 | 0.0 | 0.00 | 0.00 | 0.00 | 54 | 1003.3 | |
| 20260905051522 | 72 | 0.0 | 0.0 | 0.00 | 0.00 | 0.00 | 57 | 1003.3 | |
| 20260905050551 | 71 | 0.0 | 0.0 | 0.00 | 0.00 | 0.00 | 58 | 1003.3 | |
| 20260905045544 | 71 | 0.0 | 0.0 | 0.00 | 0.00 | 0.00 | 59 | 1003.3 | |
| 20260905044520 | 70 | 0.0 | 0.0 | 0.00 | 0.00 | 0.00 | 61 | 1002.6 | |
| 20260905043547 | 70 | 0.0 | 0.0 | 0.00 | 0.00 | 0.00 | 59 | 1002.3 | |
| 20260905042519 | 72 | 0.0 | 0.0 | 0.00 | 0.00 | 0.00 | 55 | 1002.3 | |
| 20260905041550 | 72 | 0.0 | 0.0 | 0.00 | 0.00 | 0.00 | 53 | 1001.5 | |
| 20260905040515 | 72 | 0.0 | 0.0 | 0.00 | 0.00 | 0.00 | 53 | 1001.3 | |
| 20260905035523 | 72 | 0.0 | 0.0 | 0.00 | 0.00 | 0.00 | 53 | 1002.3 | |
| 20260905034545 | 72 | 0.0 | 0.0 | 0.00 | 0.00 | 0.00 | 55 | 1001.6 | |
| 20260905033517 | 72 | 0.0 | 0.0 | 0.00 | 0.00 | 0.00 | 56 | 1001.3 | |
| 20260905032548 | 71 | 0.0 | 0.0 | 0.00 | 0.00 | 0.00 | 56 | 1002.3 | |
| 20260905031518 | 71 | 0.0 | 0.0 | 0.00 | 0.00 | 0.00 | 56 | 1001.3 | |
| 20260905030526 | 72 | 0.0 | 0.0 | 0.00 | 0.00 | 0.00 | 55 | 1001.3 | |
| 20260905025524 | 72 | 0.0 | 0.0 | 0.00 | 0.00 | 0.00 | 56 | 1001.3 | |
| 20260905024516 | 71 | 0.0 | 0.0 | 0.00 | 0.00 | 0.00 | 56 | 1001.3 | |
| 20260905023606 | 71 | 0.0 | 0.0 | 0.00 | 0.00 | 0.00 | 56 | 1001.3 | |
| 20260905022521 | 71 | 0.0 | 0.0 | 0.00 | 0.00 | 0.00 | 56 | 1002.3 | |
| 20260905021529 | 71 | 0.0 | 0.0 | 0.00 | 0.00 | 0.00 | 56 | 1001.5 | |
| 20260905020542 | 71 | 0.0 | 0.0 | 0.00 | 0.00 | 0.00 | 55 | 1001.3 | |
| 20260905015552 | 72 | 0.0 | 0.0 | 0.00 | 0.00 | 0.00 | 54 | 1001.3 | |
| 20260905014536 | 71 | 0.0 | 0.0 | 0.00 | 0.00 | 0.00 | 54 | 1001.3 | |
| 20260905013524 | 71 | 0.0 | 0.0 | 0.00 | 0.00 | 0.00 | 54 | 1001.3 | |
| 20260905012527 | 71 | 0.0 | 0.0 | 0.00 | 0.00 | 0.00 | 54 | 1001.3 | |
| 20260905011519 | 71 | 0.0 | 0.0 | 0.00 | 0.00 | 0.00 | 54 | 1001.3 | |
| 20260905010550 | 71 | 0.0 | 0.0 | 0.00 | 0.00 | 0.00 | 52 | 1001.3 | |
| 20260905005519 | 71 | 0.0 | 0.0 | 0.00 | 0.00 | 0.00 | 52 | 1001.3 | |
| 20260905004527 | 71 | 0.0 | 0.0 | 0.00 | 0.00 | 0.00 | 52 | 1001.3 | |
| 20260905003525 | 71 | 0.0 | 0.0 | 0.00 | 0.00 | 0.00 | 52 | 1001.3 | |
| 20260905002517 | 71 | 0.0 | 0.0 | 0.00 | 0.00 | 0.00 | 51 | 1001.3 | |
| 20260905001547 | 71 | 0.0 | 0.0 | 0.00 | 0.00 | 0.00 | 49 | 1001.3 | |
| 20260905000522 | 72 | 0.0 | 0.0 | 0.00 | 0.00 | 0.00 | 48 | 1001.3 | |
| 20260904235530 | 72 | 0.0 | 0.0 | 0.00 | 0.00 | 0.00 | 48 | 1001.3 | |
| 20260904234524 | 72 | 0.0 | 0.0 | 0.00 | 0.00 | 0.00 | 47 | 1001.3 | |
| 20260904233516 | 73 | 0.0 | 0.0 | 0.00 | 0.00 | 0.00 | 47 | 1001.3 | |
| 20260904232517 | 73 | 0.0 | 0.0 | 0.00 | 0.00 | 0.00 | 46 | 1001.3 | |
| 20260904231525 | 73 | 0.0 | 0.0 | 0.00 | 0.00 | 0.00 | 46 | 1001.3 | |
| 20260904230530 | 73 | 0.0 | 0.0 | 0.00 | 0.00 | 0.00 | 45 | 1001.3 | |
| 20260904225522 | 73 | 0.0 | 0.0 | 0.00 | 0.00 | 0.00 | 44 | 1001.3 | |
| 20260904224552 | 74 | 0.0 | 0.0 | 0.00 | 0.00 | 0.00 | 43 | 1001.3 | |
| 20260904223520 | 74 | 0.0 | 0.0 | 0.00 | 0.00 | 0.00 | 43 | 1001.3 | |
| 20260904222528 | 74 | 0.0 | 0.0 | 0.00 | 0.00 | 0.00 | 42 | 1001.3 | |
| 20260904221548 | 74 | 0.0 | 0.0 | 0.00 | 0.00 | 0.00 | 42 | 1001.3 | |
| 20260904220520 | 75 | 0.0 | 0.0 | 0.00 | 0.00 | 0.00 | 42 | 1001.3 |